Weather History for KHRX - March, 2014

Change the Weather History Date:

Saturday, March 22, 2014

  Actual Average (KAMA) Record (KAMA)
Temperature  
Mean Temperature 46 °F 50 °F  
Max Temperature 60 °F 64 °F 87 °F (1907)
Min Temperature 31 °F 35 °F 12 °F (1955)
Degree Days  
Heating Degree Days 20 16  
Month to date heating degree days 404  
Since 1 July heating degree days 3681  
Cooling Degree Days 0 0  
Month to date cooling degree days 0  
Year to date cooling degree days 0  
Moisture  
Dew Point 23 °F    
Average Humidity 41    
Maximum Humidity 59    
Minimum Humidity 28    
Precipitation  
Precipitation 0.00 in 0.05 in 1.84 in (2000)
Month to date precipitation 0.94  
Year to date precipitation 2.22  
Snow  
Snow 0.00 in 0.10 in 4.30 in (1924)
Month to date snowfall 2.1  
Since 1 July snowfall 16.1  
Snow Depth -    
Sea Level Pressure  
Sea Level Pressure 30.11 in    
Wind  
Wind Speed 11 mph (ENE)    
Max Wind Speed 18 mph    
Max Gust Speed 25 mph    
Visibility 10 miles    
Events      
T = Trace of Precipitation, MM = Missing Value Source: NWS Daily Summary

Daily Weather History Graph

Daily Weather History Graph

Search for Another Location

Airport or City:

Trip Planner

Search our weather history database for the weather conditions in past years. The results will help you decide how hot, cold, wet, or windy it might be!

Date:

Astronomy

Mar. 22, 2014 Rise Set
Actual Time 7:50 AM CDT 8:02 PM CDT
Civil Twilight 7:24 AM CDT 8:27 PM CDT
Nautical Twilight 6:55 AM CDT 8:57 PM CDT
Astronomical Twilight 6:25 AM CDT 9:27 PM CDT
Moon 1:12 AM CDT (3/22) 11:46 AM CDT (3/22)
Length of Visible Light 13h 03m
Length of Day
12h 12m
Waning Gibbous, 65% of the Moon is Illuminated
Mar 22
Waning Gibbous
Mar 23
Last Quarter
Mar 30
New
Apr 7
First Quarter
Apr 15
Full

Hourly Weather History & Observations

Time (CDT) Temp. Windchill Dew Point Humidity Pressure Visibility Wind Dir Wind Speed Gust Speed Precip Events Conditions
12:15 AM 44.8 °F 38.7 °F 19.2 °F 36% 30.09 in 10.0 mi NNE 12.7 mph - N/A   Clear
12:35 AM 41.2 °F 34.5 °F 19.4 °F 42% 30.10 in 10.0 mi North 11.5 mph - N/A   Clear
12:55 AM 42.3 °F 35.5 °F 19.4 °F 40% 30.10 in 10.0 mi North 12.7 mph - N/A   Clear
1:15 AM 42.8 °F 36.2 °F 19.4 °F 39% 30.12 in 10.0 mi North 12.7 mph - N/A   Scattered Clouds
1:35 AM 43.0 °F 36.4 °F 19.4 °F 39% 30.10 in 10.0 mi NNE 12.7 mph - N/A   Scattered Clouds
1:55 AM 41.9 °F 35.9 °F 19.4 °F 41% 30.11 in 10.0 mi NNE 10.4 mph - N/A   Clear
2:15 AM 40.8 °F 34.5 °F 19.4 °F 42% 30.11 in 10.0 mi North 10.4 mph - N/A   Clear
2:35 AM 40.3 °F 34.9 °F 19.2 °F 43% 30.10 in 10.0 mi NE 8.1 mph - N/A   Clear
2:55 AM 37.9 °F 32.7 °F 18.3 °F 45% 30.09 in 10.0 mi ENE 6.9 mph - N/A   Clear
3:15 AM 36.5 °F 31.8 °F 17.8 °F 47% 30.09 in 10.0 mi NNE 5.8 mph - N/A   Clear
3:35 AM 35.6 °F 29.9 °F 18.3 °F 50% 30.09 in 10.0 mi North 6.9 mph - N/A   Clear
3:55 AM 34.7 °F 28.1 °F 17.6 °F 50% 30.10 in 10.0 mi North 8.1 mph - N/A   Clear
4:15 AM 36.7 °F 29.9 °F 18.5 °F 48% 30.10 in 10.0 mi NNE 9.2 mph - N/A   Clear
4:35 AM 35.4 °F 29.7 °F 18.1 °F 49% 30.10 in 10.0 mi NNE 6.9 mph - N/A   Clear
4:55 AM 34.3 °F 28.4 °F 18.1 °F 52% 30.10 in 10.0 mi NNE 6.9 mph - N/A   Clear
5:15 AM 32.2 °F 24.4 °F 16.3 °F 52% 30.11 in 10.0 mi North 9.2 mph - N/A   Clear
5:35 AM 31.5 °F 24.9 °F 15.6 °F 52% 30.12 in 10.0 mi North 6.9 mph - N/A   Clear
5:55 AM 31.1 °F 24.5 °F 16.2 °F 54% 30.12 in 10.0 mi NNE 6.9 mph - N/A   Clear
6:15 AM 32.9 °F 25.3 °F 18.0 °F 54% 30.13 in 10.0 mi NNE 9.2 mph - N/A   Clear
6:35 AM 32.9 °F 24.7 °F 17.6 °F 53% 30.13 in 10.0 mi NNE 10.4 mph - N/A   Clear
6:55 AM 32.0 °F 24.2 °F 17.8 °F 56% 30.14 in 10.0 mi NNE 9.2 mph - N/A   Clear
7:15 AM 32.0 °F 24.2 °F 18.0 °F 56% 30.16 in 10.0 mi NNE 9.2 mph - N/A   Clear
7:35 AM 32.0 °F 24.8 °F 18.5 °F 58% 30.17 in 10.0 mi NNE 8.1 mph - N/A   Clear
7:55 AM 31.1 °F 23.7 °F 18.3 °F 59% 30.17 in 10.0 mi NNE 8.1 mph - N/A   Clear
8:15 AM 32.0 °F 25.6 °F 19.0 °F 59% 30.18 in 10.0 mi NNE 6.9 mph - N/A   Clear
8:35 AM 33.1 °F 26.9 °F 19.2 °F 57% 30.18 in 10.0 mi NNE 6.9 mph - N/A   Clear
8:55 AM 34.9 °F 28.3 °F 20.1 °F 55% 30.18 in 10.0 mi NNE 8.1 mph - N/A   Clear
9:15 AM 37.0 °F 28.9 °F 21.6 °F 54% 30.18 in 10.0 mi NE 12.7 mph - N/A   Clear
9:35 AM 38.5 °F 30.3 °F 23.0 °F 54% 30.18 in 10.0 mi ENE 13.8 mph - N/A   Clear
9:55 AM 40.6 °F 32.7 °F 23.7 °F 51% 30.18 in 10.0 mi ENE 15.0 mph - N/A   Clear
10:15 AM 42.1 °F 33.9 °F 23.7 °F 48% 30.18 in 10.0 mi ENE 17.3 mph - N/A   Clear
10:35 AM 43.3 °F 36.5 °F 23.5 °F 46% 30.18 in 10.0 mi ENE 13.8 mph 20.7 mph N/A   Clear
10:55 AM 45.3 °F 39.7 °F 23.5 °F 42% 30.19 in 10.0 mi ENE 11.5 mph 18.4 mph N/A   Clear
11:15 AM 46.8 °F - 23.5 °F 40% 30.18 in 10.0 mi East 13.8 mph 17.3 mph N/A   Clear
11:35 AM 47.8 °F - 22.8 °F 37% 30.17 in 10.0 mi East 12.7 mph 20.7 mph N/A   Clear
11:55 AM 49.1 °F - 22.3 °F 35% 30.16 in 10.0 mi East 13.8 mph 19.6 mph N/A   Clear
12:15 PM 50.0 °F - 22.1 °F 33% 30.16 in 10.0 mi East 12.7 mph 18.4 mph N/A   Clear
12:35 PM 50.9 °F - 22.1 °F 32% 30.15 in 10.0 mi East 10.4 mph - N/A   Clear
12:55 PM 52.2 °F - 22.1 °F 31% 30.14 in 10.0 mi ESE 5.8 mph 16.1 mph N/A   Clear
1:15 PM 53.4 °F - 22.5 °F 30% 30.14 in 10.0 mi East 10.4 mph 17.3 mph N/A   Clear
1:35 PM 54.5 °F - 23.0 °F 29% 30.13 in 10.0 mi East 9.2 mph 19.6 mph N/A   Clear
1:55 PM 54.9 °F - 23.5 °F 30% 30.12 in 10.0 mi ESE 9.2 mph 20.7 mph N/A   Clear
2:15 PM 55.6 °F - 23.5 °F 29% 30.10 in 10.0 mi SE 11.5 mph 18.4 mph N/A   Clear
2:35 PM 56.1 °F - 24.1 °F 29% 30.09 in 10.0 mi SE 11.5 mph 17.3 mph N/A   Clear
2:55 PM 56.3 °F - 24.3 °F 29% 30.08 in 10.0 mi SE 10.4 mph 17.3 mph N/A   Clear
3:15 PM 57.7 °F - 24.8 °F 28% 30.07 in 10.0 mi North - - N/A   Clear
3:35 PM 58.1 °F - 25.3 °F 28% 30.07 in 10.0 mi South 10.4 mph 19.6 mph N/A   Clear
3:55 PM 58.5 °F - 25.5 °F 28% 30.04 in 10.0 mi SE 12.7 mph 17.3 mph N/A   Clear
4:15 PM 59.4 °F - 26.1 °F 28% 30.04 in 10.0 mi ESE 9.2 mph 17.3 mph N/A   Clear
4:35 PM 59.5 °F - 26.1 °F 28% 30.02 in 10.0 mi SSE 12.7 mph 23.0 mph N/A   Clear
4:55 PM 59.7 °F - 26.6 °F 28% 30.03 in 10.0 mi ESE 6.9 mph 16.1 mph N/A   Clear
5:15 PM 60.1 °F - 26.8 °F 28% 30.03 in 10.0 mi South 10.4 mph 20.7 mph N/A   Clear
5:35 PM 60.6 °F - 27.5 °F 28% 30.02 in 10.0 mi SE 13.8 mph 17.3 mph N/A   Clear
5:55 PM 60.4 °F - 27.7 °F 29% 30.02 in 10.0 mi South 12.7 mph 20.7 mph N/A   Clear
6:15 PM 59.9 °F - 27.7 °F 29% 30.02 in 10.0 mi South 11.5 mph 19.6 mph N/A   Clear
6:35 PM 59.9 °F - 28.0 °F 30% 30.03 in 10.0 mi SSE 15.0 mph 19.6 mph N/A   Clear
6:55 PM 58.8 °F - 28.4 °F 31% 30.03 in 10.0 mi SE 15.0 mph 18.4 mph N/A   Clear
7:15 PM 58.3 °F - 28.4 °F 32% 30.03 in 10.0 mi SE 13.8 mph 20.7 mph N/A   Clear
7:35 PM 56.5 °F - 28.6 °F 34% 30.04 in 10.0 mi SSE 15.0 mph 19.6 mph N/A   Clear
7:55 PM 55.4 °F - 29.1 °F 37% 30.03 in 10.0 mi SE 12.7 mph 20.7 mph N/A   Clear
8:15 PM 53.6 °F - 29.1 °F 39% 30.04 in 10.0 mi SE 11.5 mph - N/A   Clear
8:35 PM 51.8 °F - 28.9 °F 41% 30.06 in 10.0 mi ESE 9.2 mph - N/A   Clear
8:55 PM 50.9 °F - 28.4 °F 42% 30.07 in 10.0 mi East 12.7 mph - N/A   Clear
9:15 PM 49.8 °F - 28.0 °F 43% 30.09 in 10.0 mi East 16.1 mph 21.9 mph N/A   Clear
9:35 PM 48.4 °F - 27.1 °F 44% 30.10 in 10.0 mi East 15.0 mph - N/A   Clear
9:55 PM 47.5 °F - 24.4 °F 41% 30.12 in 10.0 mi East 16.1 mph 23.0 mph N/A   Clear
10:15 PM 46.6 °F - 23.5 °F 40% 30.13 in 10.0 mi East 16.1 mph 21.9 mph N/A   Clear
10:35 PM 45.9 °F 38.8 °F 23.4 °F 41% 30.14 in 10.0 mi East 17.3 mph 21.9 mph N/A   Clear
10:55 PM 45.1 °F 38.1 °F 23.4 °F 42% 30.14 in 10.0 mi East 16.1 mph 23.0 mph N/A   Clear
11:15 PM 44.2 °F 37.3 °F 23.4 °F 44% 30.17 in 10.0 mi East 15.0 mph - N/A   Clear
11:35 PM 44.2 °F 37.0 °F 23.4 °F 44% 30.18 in 10.0 mi ENE 16.1 mph 21.9 mph N/A   Clear
11:55 PM 44.2 °F 36.4 °F 22.6 °F 42% 30.20 in 10.0 mi ENE 18.4 mph 25.3 mph N/A   Scattered Clouds